This is the latest recevied weather packets stored in our database for station/object K5UBE. If no packets are shown the sender has not sent any weather packets the latest 10 day(s).
| Time | Temp. | Humidity | Pressure | Rain* | Wind** | Luminosity | Snow |
|---|---|---|---|---|---|---|---|
| 1777815250 | 10.56° C | 74% | 1024.3 hPa | 0 mm | - | - | - |
| 1777814945 | 10° C | 75% | 1023.9 hPa | 0 mm | - | - | - |
| 1777814642 | 9.44° C | 77% | 1024.2 hPa | 0 mm | - | - | - |
| 1777814339 | 8.89° C | 79% | 1024.1 hPa | 0 mm | - | - | - |
| 1777814035 | 8.89° C | 80% | 1024 hPa | 0 mm | - | - | - |
| 1777813733 | 8.33° C | 81% | 1023.9 hPa | 0 mm | - | - | - |
| 1777813430 | 7.78° C | 81% | 1023.9 hPa | 0 mm | - | - | - |
| 1777813127 | 7.78° C | 81% | 1024 hPa | 0 mm | - | - | - |
| 1777812825 | 7.78° C | 81% | 1023.7 hPa | 0 mm | - | - | - |
| 1777812521 | 7.78° C | 82% | 1023.9 hPa | 0 mm | - | - | - |
| 1777812219 | 7.22° C | 82% | 1023.6 hPa | 0 mm | - | - | - |
| 1777811917 | 7.22° C | 83% | 1023.7 hPa | 0 mm | - | - | - |
| 1777811616 | 7.22° C | 85% | 1023.5 hPa | 0 mm | - | - | - |
| 1777811311 | 6.67° C | 85% | 1023.5 hPa | 0 mm | - | - | - |
| 1777811009 | 6.67° C | 86% | 1023.6 hPa | 0 mm | - | - | - |
| 1777810706 | 6.11° C | 86% | 1023.4 hPa | 0 mm | - | - | - |
| 1777810402 | 6.11° C | 86% | 1023.3 hPa | 0 mm | - | - | - |
| 1777810098 | 6.11° C | 86% | 1023.5 hPa | 0 mm | - | - | - |
| 1777809796 | 6.11° C | 86% | 1023.2 hPa | 0 mm | - | - | - |
| 1777809493 | 6.11° C | 86% | 1023.5 hPa | 0 mm | - | - | - |
| 1777809191 | 6.11° C | 86% | 1023.2 hPa | 0 mm | - | - | - |
| 1777808889 | 6.11° C | 85% | 1023.2 hPa | 0 mm | - | - | - |
| 1777808585 | 6.11° C | 85% | 1023.1 hPa | 0 mm | - | - | - |
| 1777808282 | 6.11° C | 85% | 1023.1 hPa | 0 mm | - | - | - |
| 1777807981 | 6.67° C | 84% | 1023 hPa | 0 mm | - | - | - |
* Rain latest hour (hover to see other rain measurements)
** Current wind speed in m/s (hover to see current wind gust speed)